User: anonymous   Login
Location: Unspecified
(0.0000°N, 0.0000°E)
Time: 03:25:46
(UTC+02:00)
Language:

Cosmos 1782 Rocket - Orbit

View from above orbital plane
View from above orbital plane
View from above satellite
View from above satellite

Ground track
Ground track

The orbit data is extracted from the following two-line orbital elements,

1 16987U 86074B   17112.80520569 +.00000137 +00000-0 +13901-4 0  9992
2 16987 082.5186 002.2871 0019826 083.6785 343.6296 14.82956646629153
Epoch (UTC): 22 April 2017 19:19:29
Eccentricity: 0.0019826
inclination: 82.5186°
perigee height: 606 km
apogee height: 634 km
right ascension of ascending node: 2.2871°
argument of perigee: 83.6785°
revolutions per day: 14.82956646
mean anomaly at epoch: 343.6296°
orbit number at epoch: 62915

The dashed part of the orbit path shows where the satellite is in the earth's shadow,  

DLR